TimeCST,TemperatureF,Dew PointF,Humidity,Sea Level PressureIn,VisibilityMPH,Wind Direction,Wind SpeedMPH,Gust SpeedMPH,PrecipitationIn,Events,Conditions,WindDirDegrees,DateUTC
12:15 AM,35.6,29.3,78,30.01,10.0,NW,4.6,-,N/A,,Overcast,310,2012-12-07 06:15:00
12:35 AM,37.0,29.3,74,30.00,10.0,NW,5.8,-,N/A,,Overcast,320,2012-12-07 06:35:00
12:55 AM,37.6,29.3,72,30.00,10.0,NW,3.5,-,N/A,,Overcast,320,2012-12-07 06:55:00
1:15 AM,37.4,29.3,73,29.99,10.0,Calm,Calm,-,N/A,,Overcast,0,2012-12-07 07:15:00
1:35 AM,36.7,29.1,74,29.99,10.0,Calm,Calm,-,N/A,,Overcast,0,2012-12-07 07:35:00
1:55 AM,37.8,28.9,71,29.99,10.0,Calm,Calm,-,N/A,,Overcast,0,2012-12-07 07:55:00
2:15 AM,37.0,28.8,72,29.99,10.0,Calm,Calm,-,N/A,,Overcast,0,2012-12-07 08:15:00
2:35 AM,36.9,28.8,72,29.98,10.0,Calm,Calm,-,N/A,,Overcast,0,2012-12-07 08:35:00
2:55 AM,37.0,28.6,71,29.97,10.0,Calm,Calm,-,N/A,,Overcast,0,2012-12-07 08:55:00
3:15 AM,35.1,28.4,77,29.98,10.0,Calm,Calm,-,N/A,,Overcast,0,2012-12-07 09:15:00
3:35 AM,35.1,28.4,77,29.97,10.0,Calm,Calm,-,N/A,,Overcast,0,2012-12-07 09:35:00
3:55 AM,36.7,28.9,74,29.97,10.0,Calm,Calm,-,N/A,,Overcast,0,2012-12-07 09:55:00
4:15 AM,36.3,28.6,74,29.96,10.0,Calm,Calm,-,N/A,,Overcast,0,2012-12-07 10:15:00
4:35 AM,34.2,28.2,79,29.96,10.0,Calm,Calm,-,N/A,,Mostly Cloudy,0,2012-12-07 10:35:00
4:55 AM,33.4,28.0,81,29.95,10.0,Calm,Calm,-,N/A,,Scattered Clouds,0,2012-12-07 10:55:00
5:15 AM,31.5,26.4,82,29.96,10.0,Calm,Calm,-,N/A,,Scattered Clouds,0,2012-12-07 11:15:00
5:35 AM,29.8,26.1,86,29.96,10.0,Calm,Calm,-,N/A,,Clear,0,2012-12-07 11:35:00
5:55 AM,31.3,27.0,84,29.95,10.0,Calm,Calm,-,N/A,,Clear,0,2012-12-07 11:55:00
6:15 AM,29.5,26.2,88,29.94,10.0,Calm,Calm,-,N/A,,Clear,0,2012-12-07 12:15:00
6:35 AM,29.7,25.9,86,29.95,10.0,Calm,Calm,-,N/A,,Clear,0,2012-12-07 12:35:00
6:55 AM,29.7,26.8,89,29.94,10.0,Calm,Calm,-,N/A,,Clear,0,2012-12-07 12:55:00
7:15 AM,30.4,27.0,87,29.94,10.0,Calm,Calm,-,N/A,,Clear,0,2012-12-07 13:15:00
7:35 AM,31.1,27.3,86,29.94,10.0,ESE,3.5,-,N/A,,Clear,110,2012-12-07 13:35:00
7:55 AM,32.7,29.1,87,29.93,10.0,Calm,Calm,-,N/A,,Clear,0,2012-12-07 13:55:00
8:15 AM,34.2,29.3,82,29.92,4.0,East,4.6,-,N/A,,Haze,90,2012-12-07 14:15:00
8:35 AM,34.9,29.3,80,29.94,10.0,Calm,Calm,-,N/A,,Clear,0,2012-12-07 14:35:00
8:55 AM,32.0,28.4,87,29.94,10.0,Calm,Calm,-,N/A,,Clear,0,2012-12-07 14:55:00
9:15 AM,33.8,29.8,85,29.94,10.0,Calm,Calm,-,N/A,,Clear,0,2012-12-07 15:15:00
9:35 AM,35.6,30.0,80,29.92,7.0,East,3.5,-,N/A,,Clear,100,2012-12-07 15:35:00
9:55 AM,37.2,30.2,76,29.93,10.0,ENE,5.8,-,N/A,,Clear,70,2012-12-07 15:55:00
10:15 AM,38.3,29.5,71,29.94,10.0,East,5.8,-,N/A,,Clear,100,2012-12-07 16:15:00
10:35 AM,39.9,29.7,67,29.94,10.0,Calm,Calm,-,N/A,,Clear,0,2012-12-07 16:35:00
10:55 AM,40.1,28.4,63,29.96,10.0,NE,3.5,-,N/A,,Clear,50,2012-12-07 16:55:00
11:15 AM,40.6,28.6,62,29.95,10.0,North,3.5,-,N/A,,Clear,10,2012-12-07 17:15:00
11:35 AM,40.8,28.2,61,29.94,10.0,Calm,Calm,-,N/A,,Scattered Clouds,0,2012-12-07 17:35:00
11:55 AM,40.6,27.3,59,29.94,10.0,Calm,Calm,-,N/A,,Mostly Cloudy,0,2012-12-07 17:55:00
12:15 PM,41.0,27.5,59,29.93,10.0,Calm,Calm,-,N/A,,Overcast,0,2012-12-07 18:15:00
12:35 PM,41.9,28.2,58,29.93,10.0,NW,5.8,-,N/A,,Overcast,310,2012-12-07 18:35:00
12:55 PM,41.0,27.3,58,29.94,10.0,NNW,3.5,-,N/A,,Overcast,340,2012-12-07 18:55:00
1:15 PM,41.0,27.5,59,29.93,10.0,North,4.6,-,N/A,,Overcast,350,2012-12-07 19:15:00
1:35 PM,40.8,26.8,57,29.92,10.0,North,4.6,-,N/A,,Overcast,360,2012-12-07 19:35:00
1:55 PM,40.3,26.8,59,29.92,10.0,North,3.5,-,N/A,,Overcast,10,2012-12-07 19:55:00
2:15 PM,40.1,26.6,59,29.90,10.0,NNE,4.6,-,N/A,,Overcast,20,2012-12-07 20:15:00
2:35 PM,39.6,26.6,60,29.91,10.0,NE,5.8,-,N/A,,Overcast,40,2012-12-07 20:35:00
2:55 PM,39.4,27.1,62,29.90,10.0,NE,8.1,-,N/A,,Overcast,40,2012-12-07 20:55:00
3:15 PM,38.1,26.6,63,29.89,10.0,ENE,9.2,-,N/A,,Overcast,70,2012-12-07 21:15:00
3:35 PM,37.8,26.8,65,29.89,10.0,East,6.9,-,N/A,,Overcast,80,2012-12-07 21:35:00
3:55 PM,38.3,26.6,63,29.88,10.0,East,9.2,-,N/A,,Overcast,80,2012-12-07 21:55:00
4:15 PM,38.3,26.4,62,29.88,10.0,East,5.8,-,N/A,,Mostly Cloudy,80,2012-12-07 22:15:00
4:35 PM,37.9,26.6,64,29.89,10.0,East,5.8,-,N/A,,Scattered Clouds,100,2012-12-07 22:35:00
4:55 PM,37.0,26.6,66,29.89,10.0,East,3.5,-,N/A,,Scattered Clouds,100,2012-12-07 22:55:00
5:15 PM,36.7,26.4,66,29.89,10.0,ENE,4.6,-,N/A,,Clear,70,2012-12-07 23:15:00
5:35 PM,34.9,26.2,71,29.91,7.0,NNW,4.6,-,N/A,,Clear,330,2012-12-07 23:35:00
5:55 PM,32.7,25.2,74,29.92,10.0,North,4.6,-,N/A,,Clear,350,2012-12-07 23:55:00
6:15 PM,33.3,25.7,74,29.92,10.0,North,4.6,-,N/A,,Clear,350,2012-12-08 00:15:00
6:35 PM,32.0,27.0,82,29.93,10.0,North,3.5,-,N/A,,Clear,350,2012-12-08 00:35:00
7:15 PM,32.0,29.7,91,29.94,10.0,North,5.8,-,N/A,,Clear,360,2012-12-08 01:15:00
7:35 PM,32.0,30.2,93,29.94,10.0,NNE,5.8,-,N/A,,Clear,20,2012-12-08 01:35:00
7:55 PM,32.0,30.6,94,29.94,10.0,NE,3.5,-,N/A,,Clear,40,2012-12-08 01:55:00
8:35 PM,31.5,30.2,95,29.94,10.0,Calm,Calm,-,N/A,,Clear,0,2012-12-08 02:35:00
8:55 PM,27.7,27.0,97,29.95,10.0,Calm,Calm,-,N/A,,Clear,0,2012-12-08 02:55:00
9:15 PM,29.3,28.9,99,29.94,10.0,Calm,Calm,-,N/A,,Clear,0,2012-12-08 03:15:00
9:35 PM,28.9,28.6,99,29.96,10.0,NW,3.5,-,N/A,,Mostly Cloudy,310,2012-12-08 03:35:00
9:55 PM,28.4,28.2,99,29.97,7.0,WNW,3.5,-,N/A,,Mostly Cloudy,300,2012-12-08 03:55:00
10:15 PM,30.0,29.8,99,29.98,10.0,West,4.6,-,N/A,,Overcast,280,2012-12-08 04:15:00
10:35 PM,31.1,30.9,99,29.98,7.0,NW,4.6,-,N/A,,Overcast,320,2012-12-08 04:35:00
10:55 PM,32.0,31.8,99,29.98,7.0,NNW,4.6,-,N/A,,Overcast,340,2012-12-08 04:55:00
11:15 PM,32.0,32.0,100,29.99,7.0,NNW,3.5,-,N/A,,Overcast,330,2012-12-08 05:15:00
11:35 PM,32.5,32.0,98,30.00,10.0,North,3.5,-,N/A,,Overcast,350,2012-12-08 05:35:00
11:55 PM,32.9,32.0,96,29.99,10.0,Calm,Calm,-,N/A,,Overcast,0,2012-12-08 05:55:00